Weather History for Newport News, VA

Change the Weather History Date:

Friday, December 28, 2012

  Actual Average Record
Temperature  
Mean Temperature 39 °F -  
Max Temperature 46 °F 50 °F 75 °F (2008)
Min Temperature 32 °F 33 °F 17 °F (2004)
Degree Days  
Heating Degree Days 26    
Moisture  
Dew Point 27 °F    
Average Humidity 61    
Maximum Humidity 79    
Minimum Humidity 49    
Precipitation  
Precipitation 0.00 in - - ()
Sea Level Pressure  
Sea Level Pressure 30.10 in    
Wind  
Wind Speed 5 mph (NW)    
Max Wind Speed 8 mph    
Max Gust Speed -    
Visibility 10 miles    
Events      
Averages and records for this station are not official NWS values.
T = Trace of Precipitation, MM = Missing Value Source: NWS Daily Summary

Daily Weather History Graph

Daily Weather History Graph

Search for Another Location

Airport:

Trip Planner

Search our weather history database for the weather conditions in past years. The results will help you decide how hot, cold, wet, or windy it might be!

Date:

Astronomy

Dec. 28, 2012 Rise Set
Actual Time 7:18 AM EST 4:56 PM EST
Civil Twilight 6:49 AM EST 5:25 PM EST
Nautical Twilight 6:17 AM EST 5:58 PM EST
Astronomical Twilight 5:45 AM EST 6:30 PM EST
Moon 5:30 PM EST (12/28) 7:12 AM EST (12/28)
Length of Visible Light 10h 36m
Length of Day
9h 38m
Full, 100% of the Moon is Illuminated
Dec 28
Full
Jan 4
Last Quarter
Jan 11
New
Jan 18
First Quarter
Jan 26
Full

Hourly Weather History & Observations

Time (EST) Temp. Windchill Dew Point Humidity Pressure Visibility Wind Dir Wind Speed Gust Speed Precip Events Conditions
12:54 AM 37.9 °F 32.7 °F 23.0 °F 55% 30.04 in 10.0 mi NW 6.9 mph - N/A   Clear
1:54 AM 36.0 °F 32.1 °F 23.0 °F 59% 30.06 in 10.0 mi NW 4.6 mph - N/A   Clear
2:54 AM 35.1 °F 31.0 °F 23.0 °F 61% 30.07 in 10.0 mi NW 4.6 mph - N/A   Clear
3:54 AM 36.0 °F 30.3 °F 23.0 °F 59% 30.06 in 10.0 mi NNW 6.9 mph - N/A   Clear
4:54 AM 35.1 °F 32.2 °F 23.0 °F 61% 30.08 in 10.0 mi WNW 3.5 mph - N/A   Clear
5:54 AM 33.8 °F 30.8 °F 23.0 °F 65% 30.10 in 10.0 mi WNW 3.5 mph - N/A   Clear
6:54 AM 32.0 °F 27.5 °F 23.0 °F 69% 30.12 in 10.0 mi WNW 4.6 mph - N/A   Clear
7:54 AM 35.1 °F 29.3 °F 24.1 °F 64% 30.13 in 10.0 mi NW 6.9 mph - N/A   Clear
8:54 AM 37.9 °F 33.5 °F 25.0 °F 60% 30.16 in 10.0 mi NNW 5.8 mph - N/A   Clear
9:54 AM 42.1 °F 37.7 °F 27.0 °F 55% 30.17 in 10.0 mi NNE 6.9 mph - N/A   Clear
10:54 AM 44.1 °F 40.8 °F 27.0 °F 51% 30.17 in 10.0 mi Variable 5.8 mph - N/A   Clear
11:54 AM 43.0 °F 41.3 °F 26.1 °F 51% 30.15 in 10.0 mi WSW 3.5 mph - N/A   Clear
12:54 PM 45.0 °F 43.5 °F 27.0 °F 49% 30.12 in 10.0 mi Variable 3.5 mph - N/A   Clear
1:54 PM 46.0 °F 41.9 °F 28.0 °F 50% 30.10 in 10.0 mi SW 8.1 mph - N/A   Clear
2:54 PM 45.0 °F 42.6 °F 27.0 °F 49% 30.10 in 10.0 mi West 4.6 mph - N/A   Clear
3:54 PM 45.0 °F 42.6 °F 27.0 °F 49% 30.11 in 10.0 mi WNW 4.6 mph - N/A   Partly Cloudy
4:54 PM 44.1 °F - 27.0 °F 51% 30.08 in 10.0 mi Calm Calm - N/A   Clear
5:54 PM 39.9 °F 37.8 °F 30.0 °F 68% 30.09 in 10.0 mi East 3.5 mph - N/A   Partly Cloudy
6:54 PM 39.0 °F 34.8 °F 30.0 °F 70% 30.07 in 10.0 mi ESE 5.8 mph - N/A   Clear
7:54 PM 39.0 °F - 28.9 °F 67% 30.09 in 10.0 mi Calm Calm - N/A   Clear
8:54 PM 37.9 °F - 30.0 °F 73% 30.11 in 10.0 mi Calm Calm - N/A   Clear
9:54 PM 37.0 °F - 30.0 °F 76% 30.11 in 10.0 mi Calm Calm - N/A   Clear
10:54 PM 37.0 °F - 30.9 °F 79% 30.08 in 8.0 mi Calm Calm - N/A   Clear
11:54 PM 37.9 °F - 30.9 °F 76% 30.06 in 9.0 mi Calm Calm - N/A   Clear